Time,TemperatureF,DewpointF,PressureIn,WindDirection,WindDirectionDegrees,WindSpeedMPH,WindSpeedGustMPH,Humidity,HourlyPrecipIn,Conditions,Clouds,dailyrainin,SoftwareType,DateUTC
2013-03-06 00:02:00,30.0,27.0,29.98,WNW,299,14.0,26.0,88,0.00,,,0.04,,2013-03-06 06:02:00,
2013-03-06 00:11:00,30.0,27.0,29.98,WNW,299,14.0,26.0,88,0.00,,,0.04,,2013-03-06 06:11:00,
2013-03-06 00:22:00,30.0,27.0,29.99,WNW,295,14.0,25.0,87,0.00,,,0.04,,2013-03-06 06:22:00,
2013-03-06 00:32:00,30.0,27.0,29.99,WNW,295,14.0,25.0,87,0.00,,,0.04,,2013-03-06 06:32:00,
2013-03-06 00:42:00,30.0,27.0,29.99,WNW,295,14.0,25.0,87,0.00,,,0.04,,2013-03-06 06:42:00,
2013-03-06 00:52:00,29.0,26.0,30.01,NW,305,13.0,28.0,87,0.00,,,0.04,,2013-03-06 06:52:00,
2013-03-06 01:01:00,29.0,26.0,30.01,NW,305,13.0,28.0,87,0.00,,,0.04,,2013-03-06 07:01:00,
2013-03-06 01:11:00,29.0,26.0,30.01,NW,305,13.0,28.0,87,0.00,,,0.04,,2013-03-06 07:11:00,
2013-03-06 01:22:00,29.0,25.0,30.02,WNW,301,16.0,29.0,86,0.00,,,0.04,,2013-03-06 07:22:00,
2013-03-06 01:31:00,29.0,25.0,30.02,WNW,301,16.0,29.0,86,0.00,,,0.04,,2013-03-06 07:31:00,
2013-03-06 01:42:00,29.0,25.0,30.02,WNW,301,16.0,29.0,86,0.00,,,0.04,,2013-03-06 07:42:00,
2013-03-06 01:52:00,29.0,25.0,30.03,NW,304,16.0,26.0,86,0.00,,,0.04,,2013-03-06 07:52:00,
2013-03-06 02:01:00,29.0,25.0,30.03,NW,304,16.0,26.0,86,0.00,,,0.04,,2013-03-06 08:01:00,
2013-03-06 02:11:00,29.0,25.0,30.03,NW,304,16.0,26.0,86,0.00,,,0.04,,2013-03-06 08:11:00,
2013-03-06 02:21:00,29.0,25.0,30.04,WNW,283,13.0,28.0,86,0.00,,,0.04,,2013-03-06 08:21:00,
2013-03-06 02:32:00,29.0,25.0,30.04,WNW,283,13.0,28.0,86,0.00,,,0.04,,2013-03-06 08:32:00,
2013-03-06 02:42:00,29.0,25.0,30.04,WNW,283,13.0,28.0,86,0.00,,,0.04,,2013-03-06 08:42:00,
2013-03-06 02:52:00,29.0,25.0,30.06,NW,304,14.0,23.0,85,0.00,,,0.04,,2013-03-06 08:52:00,
2013-03-06 03:01:00,29.0,25.0,30.06,NW,304,14.0,23.0,85,0.00,,,0.04,,2013-03-06 09:01:00,
2013-03-06 03:12:00,29.0,25.0,30.06,NW,304,14.0,23.0,85,0.00,,,0.04,,2013-03-06 09:12:00,
2013-03-06 03:21:00,29.0,25.0,30.07,WNW,283,16.0,27.0,85,0.00,,,0.04,,2013-03-06 09:21:00,
2013-03-06 03:31:00,29.0,25.0,30.07,WNW,283,16.0,27.0,85,0.00,,,0.04,,2013-03-06 09:31:00,
2013-03-06 03:42:00,29.0,25.0,30.07,WNW,283,16.0,27.0,85,0.00,,,0.04,,2013-03-06 09:42:00,
2013-03-06 03:52:00,29.0,25.0,30.08,NW,306,13.0,22.0,85,0.00,,,0.04,,2013-03-06 09:52:00,
2013-03-06 04:01:00,29.0,25.0,30.08,NW,306,13.0,22.0,85,0.00,,,0.04,,2013-03-06 10:01:00,
2013-03-06 04:11:00,29.0,25.0,30.08,NW,306,13.0,22.0,85,0.00,,,0.04,,2013-03-06 10:11:00,
2013-03-06 04:21:00,29.0,25.0,30.09,NW,313,14.0,24.0,85,0.00,,,0.04,,2013-03-06 10:21:00,
2013-03-06 04:31:00,29.0,25.0,30.09,NW,313,14.0,24.0,85,0.00,,,0.04,,2013-03-06 10:31:00,
2013-03-06 04:42:00,29.0,25.0,30.09,NW,313,14.0,24.0,85,0.00,,,0.04,,2013-03-06 10:42:00,
2013-03-06 04:52:00,29.0,25.0,30.11,NW,310,13.0,25.0,85,0.00,,,0.04,,2013-03-06 10:52:00,
2013-03-06 05:02:00,29.0,25.0,30.11,NW,310,13.0,25.0,85,0.00,,,0.04,,2013-03-06 11:02:00,
2013-03-06 05:11:00,29.0,25.0,30.11,NW,310,13.0,25.0,85,0.00,,,0.04,,2013-03-06 11:11:00,
2013-03-06 05:22:00,29.0,25.0,30.13,NW,306,12.0,26.0,84,0.00,,,0.04,,2013-03-06 11:22:00,
2013-03-06 05:32:00,29.0,25.0,30.13,NW,306,12.0,26.0,84,0.00,,,0.04,,2013-03-06 11:32:00,
2013-03-06 05:42:00,29.0,25.0,30.13,NW,306,12.0,26.0,84,0.00,,,0.04,,2013-03-06 11:42:00,
2013-03-06 05:52:00,29.0,25.0,30.16,NW,325,12.0,23.0,84,0.00,,,0.04,,2013-03-06 11:52:00,
2013-03-06 06:02:00,29.0,25.0,30.16,NW,325,12.0,23.0,84,0.00,,,0.04,,2013-03-06 12:02:00,
2013-03-06 06:11:00,29.0,25.0,30.16,NW,325,12.0,23.0,84,0.00,,,0.04,,2013-03-06 12:11:00,
2013-03-06 06:21:00,29.0,25.0,30.17,NW,312,14.0,22.0,83,0.00,,,0.04,,2013-03-06 12:21:00,
2013-03-06 06:32:00,29.0,25.0,30.17,NW,312,14.0,22.0,83,0.00,,,0.04,,2013-03-06 12:32:00,
2013-03-06 06:43:00,29.0,25.0,30.17,NW,312,14.0,22.0,83,0.00,,,0.04,,2013-03-06 12:43:00,
2013-03-06 06:52:00,28.0,24.0,30.18,WNW,285,14.0,24.0,83,0.00,,,0.04,,2013-03-06 12:52:00,
2013-03-06 07:02:00,28.0,24.0,30.18,WNW,285,14.0,24.0,83,0.00,,,0.04,,2013-03-06 13:02:00,
2013-03-06 07:12:00,28.0,24.0,30.18,WNW,285,14.0,24.0,83,0.00,,,0.04,,2013-03-06 13:12:00,
2013-03-06 07:22:00,28.0,24.0,30.19,WNW,297,12.0,21.0,83,0.00,,,0.04,,2013-03-06 13:22:00,
2013-03-06 07:32:00,28.0,24.0,30.19,WNW,297,12.0,21.0,83,0.00,,,0.04,,2013-03-06 13:32:00,
2013-03-06 07:42:00,28.0,24.0,30.19,WNW,297,12.0,21.0,83,0.00,,,0.04,,2013-03-06 13:42:00,
2013-03-06 07:52:00,28.0,24.0,30.22,NW,318,12.0,19.0,83,0.00,,,0.04,,2013-03-06 13:52:00,
2013-03-06 08:01:00,28.0,24.0,30.22,NW,318,12.0,19.0,83,0.00,,,0.04,,2013-03-06 14:01:00,
2013-03-06 08:11:00,28.0,24.0,30.22,NW,318,12.0,19.0,83,0.00,,,0.04,,2013-03-06 14:11:00,
2013-03-06 08:22:00,29.0,25.0,30.24,WNW,301,10.0,20.0,83,0.00,,,0.04,,2013-03-06 14:22:00,
2013-03-06 08:32:00,29.0,25.0,30.24,WNW,301,10.0,20.0,83,0.00,,,0.04,,2013-03-06 14:32:00,
2013-03-06 08:42:00,29.0,25.0,30.24,WNW,301,10.0,20.0,83,0.00,,,0.04,,2013-03-06 14:42:00,
2013-03-06 08:52:00,28.0,24.0,30.24,NW,306,13.0,21.0,83,0.00,,,0.04,,2013-03-06 14:52:00,
2013-03-06 09:02:00,28.0,24.0,30.24,NW,306,13.0,21.0,83,0.00,,,0.04,,2013-03-06 15:02:00,
2013-03-06 09:11:00,28.0,24.0,30.24,NW,306,13.0,21.0,83,0.00,,,0.04,,2013-03-06 15:11:00,
2013-03-06 09:21:00,29.0,25.0,30.26,NW,312,11.0,18.0,83,0.00,,,0.04,,2013-03-06 15:21:00,
2013-03-06 09:32:00,29.0,25.0,30.26,NW,312,11.0,18.0,83,0.00,,,0.04,,2013-03-06 15:32:00,
2013-03-06 09:42:00,29.0,25.0,30.26,NW,312,11.0,18.0,83,0.00,,,0.04,,2013-03-06 15:42:00,
2013-03-06 09:52:00,29.0,24.0,30.27,NW,318,8.0,19.0,82,0.00,,,0.04,,2013-03-06 15:52:00,
2013-03-06 10:01:00,29.0,24.0,30.27,NW,318,8.0,19.0,82,0.00,,,0.04,,2013-03-06 16:01:00,
2013-03-06 10:11:00,29.0,24.0,30.27,NW,318,8.0,19.0,82,0.00,,,0.04,,2013-03-06 16:11:00,
2013-03-06 10:21:00,29.0,24.0,30.28,NW,304,10.0,21.0,82,0.00,,,0.04,,2013-03-06 16:21:00,
2013-03-06 10:32:00,29.0,24.0,30.28,NW,304,10.0,21.0,82,0.00,,,0.04,,2013-03-06 16:32:00,
2013-03-06 10:42:00,29.0,24.0,30.28,NW,304,10.0,21.0,82,0.00,,,0.04,,2013-03-06 16:42:00,
2013-03-06 10:52:00,30.0,25.0,30.29,NW,325,11.0,19.0,81,-99.99,,,-99.99,,2013-03-06 16:52:00,
2013-03-06 11:01:00,30.0,25.0,30.29,NW,325,11.0,19.0,81,-99.99,,,-99.99,,2013-03-06 17:01:00,
2013-03-06 11:11:00,30.0,25.0,30.29,NW,325,11.0,19.0,81,-99.99,,,-99.99,,2013-03-06 17:11:00,
2013-03-06 11:21:00,30.0,25.0,30.30,WNW,287,11.0,17.0,81,0.00,,,0.04,,2013-03-06 17:21:00,
2013-03-06 11:32:00,30.0,25.0,30.30,WNW,287,11.0,17.0,81,0.00,,,0.04,,2013-03-06 17:32:00,
2013-03-06 11:42:00,30.0,25.0,30.30,WNW,287,11.0,17.0,81,0.00,,,0.04,,2013-03-06 17:42:00,
2013-03-06 11:52:00,30.0,25.0,30.29,NW,310,7.0,20.0,81,0.00,,,0.04,,2013-03-06 17:52:00,
2013-03-06 12:02:00,30.0,25.0,30.29,NW,310,7.0,20.0,81,0.00,,,0.04,,2013-03-06 18:02:00,
2013-03-06 12:28:00,31.0,26.0,30.29,WNW,302,6.0,14.0,80,0.00,,,0.03,,2013-03-06 18:28:00,
2013-03-06 12:42:00,31.0,26.0,30.29,WNW,302,6.0,14.0,80,0.00,,,0.03,,2013-03-06 18:42:00,
2013-03-06 12:52:00,31.0,25.0,30.29,NW,324,7.0,11.0,79,0.00,,,0.03,,2013-03-06 18:52:00,
2013-03-06 13:02:00,31.0,25.0,30.29,NW,324,7.0,11.0,79,0.00,,,0.03,,2013-03-06 19:02:00,
2013-03-06 13:11:00,31.0,25.0,30.29,NW,324,7.0,11.0,79,0.00,,,0.03,,2013-03-06 19:11:00,
2013-03-06 13:21:00,31.0,25.0,30.28,NW,310,10.0,16.0,78,0.00,,,0.02,,2013-03-06 19:21:00,
2013-03-06 13:32:00,31.0,25.0,30.28,NW,310,10.0,16.0,78,0.00,,,0.02,,2013-03-06 19:32:00,
2013-03-06 13:43:00,31.0,25.0,30.28,NW,310,10.0,16.0,78,0.00,,,0.02,,2013-03-06 19:43:00,
2013-03-06 13:53:00,31.0,25.0,30.28,WNW,303,9.0,13.0,79,0.00,,,0.02,,2013-03-06 19:53:00,
2013-03-06 14:01:00,31.0,25.0,30.28,WNW,303,9.0,13.0,79,0.00,,,0.02,,2013-03-06 20:01:00,
2013-03-06 14:12:00,31.0,25.0,30.28,WNW,303,9.0,13.0,79,0.00,,,0.02,,2013-03-06 20:12:00,
2013-03-06 14:22:00,31.0,26.0,30.28,WNW,296,7.0,15.0,80,0.00,,,0.01,,2013-03-06 20:22:00,
2013-03-06 14:32:00,31.0,26.0,30.28,WNW,296,7.0,15.0,80,0.00,,,0.01,,2013-03-06 20:32:00,
2013-03-06 14:43:00,31.0,26.0,30.28,WNW,296,7.0,15.0,80,0.00,,,0.01,,2013-03-06 20:43:00,
2013-03-06 14:53:00,30.0,25.0,30.29,West,274,9.0,14.0,81,0.00,,,0.01,,2013-03-06 20:53:00,
2013-03-06 15:02:00,30.0,25.0,30.29,West,274,9.0,14.0,81,0.00,,,0.01,,2013-03-06 21:02:00,
2013-03-06 15:12:00,30.0,25.0,30.29,West,274,9.0,14.0,81,0.00,,,0.01,,2013-03-06 21:12:00,
2013-03-06 15:22:00,30.0,25.0,30.31,WNW,303,8.0,11.0,82,0.00,,,0.00,,2013-03-06 21:22:00,
2013-03-06 15:32:00,30.0,25.0,30.31,WNW,303,8.0,11.0,82,0.00,,,0.00,,2013-03-06 21:32:00,
2013-03-06 15:42:00,30.0,25.0,30.31,WNW,303,8.0,11.0,82,0.00,,,0.00,,2013-03-06 21:42:00,
2013-03-06 15:52:00,30.0,25.0,30.30,WNW,301,9.0,13.0,82,0.00,,,0.00,,2013-03-06 21:52:00,
2013-03-06 16:01:00,30.0,25.0,30.30,WNW,301,9.0,13.0,82,0.00,,,0.00,,2013-03-06 22:01:00,
2013-03-06 16:11:00,30.0,25.0,30.30,WNW,301,9.0,13.0,82,0.00,,,0.00,,2013-03-06 22:11:00,
2013-03-06 16:21:00,30.0,25.0,30.31,WNW,297,7.0,15.0,82,0.00,,,0.00,,2013-03-06 22:21:00,
2013-03-06 16:32:00,30.0,25.0,30.31,WNW,297,7.0,15.0,82,0.00,,,0.00,,2013-03-06 22:32:00,
2013-03-06 16:42:00,30.0,25.0,30.31,WNW,297,7.0,15.0,82,0.00,,,0.00,,2013-03-06 22:42:00,
2013-03-06 16:52:00,29.0,24.0,30.32,NW,324,7.0,13.0,80,0.00,,,0.00,,2013-03-06 22:52:00,
2013-03-06 17:01:00,29.0,24.0,30.32,NW,324,7.0,13.0,80,0.00,,,0.00,,2013-03-06 23:01:00,
2013-03-06 17:11:00,29.0,24.0,30.32,NW,324,7.0,13.0,80,0.00,,,0.00,,2013-03-06 23:11:00,
2013-03-06 17:21:00,29.0,24.0,30.32,WNW,299,6.0,12.0,80,0.00,,,0.00,,2013-03-06 23:21:00,
2013-03-06 17:32:00,29.0,24.0,30.32,WNW,299,6.0,12.0,80,0.00,,,0.00,,2013-03-06 23:32:00,
2013-03-06 17:42:00,29.0,24.0,30.32,WNW,285,8.0,11.0,80,0.00,,,0.00,,2013-03-06 23:42:00,
2013-03-06 17:52:00,29.0,24.0,30.32,WNW,285,8.0,11.0,80,0.00,,,0.00,,2013-03-06 23:52:00,
2013-03-06 18:01:00,29.0,24.0,30.32,WNW,285,8.0,11.0,80,0.00,,,0.00,,2013-03-07 00:01:00,
2013-03-06 18:11:00,29.0,24.0,30.32,WNW,285,8.0,11.0,80,0.00,,,0.00,,2013-03-07 00:11:00,
2013-03-06 18:21:00,29.0,24.0,30.32,WNW,285,8.0,11.0,80,0.00,,,0.00,,2013-03-07 00:21:00,
2013-03-06 18:32:00,29.0,23.0,30.33,NW,318,7.0,16.0,79,0.00,,,0.00,,2013-03-07 00:32:00,
2013-03-06 18:42:00,29.0,23.0,30.33,NW,318,7.0,16.0,79,0.00,,,0.00,,2013-03-07 00:42:00,
2013-03-06 18:52:00,29.0,24.0,30.32,NNW,335,7.0,12.0,80,0.00,,,0.00,,2013-03-07 00:52:00,
2013-03-06 19:01:00,29.0,24.0,30.32,NNW,335,7.0,12.0,80,0.00,,,0.00,,2013-03-07 01:01:00,
2013-03-06 19:11:00,29.0,24.0,30.32,NNW,335,7.0,12.0,80,0.00,,,0.00,,2013-03-07 01:11:00,
2013-03-06 19:21:00,29.0,24.0,30.32,NW,308,6.0,9.0,80,0.00,,,0.00,,2013-03-07 01:21:00,
2013-03-06 19:31:00,29.0,24.0,30.32,NW,308,6.0,9.0,80,0.00,,,0.00,,2013-03-07 01:31:00,
2013-03-06 19:42:00,29.0,24.0,30.32,NW,308,6.0,9.0,80,0.00,,,0.00,,2013-03-07 01:42:00,
2013-03-06 19:52:00,29.0,24.0,30.32,NW,308,6.0,9.0,80,0.00,,,0.00,,2013-03-07 01:52:00,
2013-03-06 20:01:00,29.0,24.0,30.32,NW,308,6.0,9.0,80,0.00,,,0.00,,2013-03-07 02:01:00,
2013-03-06 20:22:00,29.0,24.0,30.33,NW,324,5.0,10.0,80,0.00,,,0.00,,2013-03-07 02:22:00,
2013-03-06 20:32:00,29.0,24.0,30.33,NW,324,5.0,10.0,80,0.00,,,0.00,,2013-03-07 02:32:00,
2013-03-06 20:42:00,29.0,24.0,30.33,NW,324,5.0,10.0,80,0.00,,,0.00,,2013-03-07 02:42:00,
2013-03-06 20:52:00,29.0,24.0,30.33,NW,324,5.0,10.0,80,0.00,,,0.00,,2013-03-07 02:52:00,
2013-03-06 21:01:00,28.0,23.0,30.32,WNW,298,5.0,9.0,80,0.00,,,0.00,,2013-03-07 03:01:00,
2013-03-06 21:11:00,28.0,23.0,30.33,NW,305,3.0,7.0,81,0.00,,,0.00,,2013-03-07 03:11:00,
2013-03-06 21:21:00,28.0,23.0,30.33,NW,305,3.0,7.0,81,0.00,,,0.00,,2013-03-07 03:21:00,
2013-03-06 21:32:00,28.0,23.0,30.33,NW,305,3.0,7.0,81,0.00,,,0.00,,2013-03-07 03:32:00,
2013-03-06 21:42:00,28.0,23.0,30.33,NW,305,3.0,7.0,81,0.00,,,0.00,,2013-03-07 03:42:00,
2013-03-06 21:52:00,28.0,23.0,30.32,WNW,288,4.0,6.0,81,0.00,,,0.00,,2013-03-07 03:52:00,
2013-03-06 22:01:00,28.0,23.0,30.32,WNW,288,4.0,6.0,81,0.00,,,0.00,,2013-03-07 04:01:00,
2013-03-06 22:11:00,28.0,23.0,30.32,WNW,288,4.0,6.0,81,0.00,,,0.00,,2013-03-07 04:11:00,
2013-03-06 22:21:00,28.0,23.0,30.32,WNW,299,3.0,6.0,81,0.00,,,0.00,,2013-03-07 04:21:00,
2013-03-06 22:31:00,28.0,23.0,30.32,WNW,299,3.0,6.0,81,0.00,,,0.00,,2013-03-07 04:31:00,
2013-03-06 22:42:00,28.0,23.0,30.32,WNW,299,3.0,6.0,81,0.00,,,0.00,,2013-03-07 04:42:00,
2013-03-06 22:52:00,28.0,23.0,30.32,WNW,296,3.0,5.0,80,0.00,,,0.00,,2013-03-07 04:52:00,
2013-03-06 23:01:00,28.0,23.0,30.32,WNW,296,3.0,5.0,80,0.00,,,0.00,,2013-03-07 05:01:00,
2013-03-06 23:12:00,28.0,23.0,30.32,WNW,296,3.0,5.0,80,0.00,,,0.00,,2013-03-07 05:12:00,
2013-03-06 23:22:00,28.0,23.0,30.32,WNW,298,3.0,7.0,82,0.00,,,0.00,,2013-03-07 05:22:00,
2013-03-06 23:32:00,28.0,23.0,30.32,WNW,298,3.0,7.0,82,0.00,,,0.00,,2013-03-07 05:32:00,
2013-03-06 23:42:00,28.0,23.0,30.32,WNW,298,3.0,7.0,82,0.00,,,0.00,,2013-03-07 05:42:00,
2013-03-06 23:52:00,28.0,23.0,30.32,WNW,293,2.0,5.0,82,0.00,,,0.00,,2013-03-07 05:52:00,